カタログに戻る

STARLINK-32738

運用中通信VLEO
NORAD 63046·PAYLOAD·🇺🇸 United States

打ち上げ Feb 18, 2025 から Cape Canaveral Space Force Station

Loading…

次のパス (今後24時間)

TLE

最新Source: CelesTrak SupGP

元期: Sep 14, 2026, 21:36 UTC

1 63046C 25034T   26257.90048611 -.00028537  00000+0 -84339-3 0  2577
2 63046  53.1569  96.0210 0001294  89.8681 193.1207 15.34395213    14

AllMySatでSTARLINK-32738をリアルタイム追跡

Download on the App Store